Hourly Data Report for May 16, 2022

VICTORIA UNIVERSITY CS
BRITISH COLUMBIA
Current Station Operator: ECCC - MSC

48°27'25.200" N
123°18'16.600" W
60.10 m
1018598
71783
WYJ

Download Data

Hourly Data (May 2022)
Hourly Data Report for May 16, 2022
TIME
LST
Temp Definition
°C
Dew Point Definition
°C
Rel Hum Definition
%
Precip. Amount Definition
mm

Wind Dir Definition
10's deg

Wind Spd Definition
km/h
Visibility Definition
km
Stn Press Definition
kPa
Hmdx Definition


Wind Chill Definition


Weather Definition


00:00 10.0 9.8 98 0.0 15 5   100.53     LegendNANA
01:00 9.8 9.6 99 0.0 21 2   100.55     LegendNANA
02:00 9.2 9.0 98 0.0   0   100.59     LegendNANA
03:00 9.8 9.6 99 0.0 0 1   100.62     LegendNANA
04:00 10.7 9.9 95 0.0 24 7   100.67     LegendNANA
05:00 9.6 7.4 86 0.0 25 8   100.71     LegendNANA
06:00 9.4 6.3 81 0.0 25 9   100.79     LegendNANA
07:00 10.9 7.3 79 0.0 25 11   100.87     LegendNANA
08:00 11.8 5.1 64 0.0 26 15   100.91     LegendNANA
09:00 12.8 4.6 58 0.0 27 16   100.98     LegendNANA
10:00 13.0 5.3 60 0.0 25 18   101.08     LegendNANA
11:00 13.6 5.0 56 0.0 26 14   101.19     LegendNANA
12:00 14.8 5.4 54 0.0 26 15   101.25     LegendNANA
13:00 13.6 3.6 51 0.0 26 12   101.30     LegendNANA
14:00 14.9 4.8 51 0.0 25 12   101.34     LegendNANA
15:00 14.7 2.4 44 0.0 27 14   101.35     LegendNANA
16:00 15.1 2.8 44 0.0 25 12   101.38     LegendNANA
17:00 14.4 1.9 43 0.0 27 14   101.38     LegendNANA
18:00 12.7 2.6 50 0.0 26 12   101.41     LegendNANA
19:00 11.4 1.7 51 0.0 26 11   101.44     LegendNANA
20:00 10.1 0.6 52 0.0 27 10   101.47     LegendNANA
21:00 9.0 2.0 61 0.0 27 9   101.52     LegendNANA
22:00 8.5 2.4 65 0.0 27 12   101.51     LegendNANA
23:00 7.9 3.1 72 0.0 26 8   101.55     LegendNANA

Notes on Data Quality.

Legend

  • E = Estimated
  • M = Missing
  • NA = Not Available*
  • [empty] = Indicates an unobserved value
Date modified: